Weather History for Billings, MT

Change the Weather History Date:

Monday, February 18, 2013

  Actual Average Record
Temperature  
Mean Temperature 27 °F 31 °F  
Max Temperature 34 °F 41 °F 62 °F (2004)
Min Temperature 19 °F 21 °F -24 °F (1936)
Degree Days  
Heating Degree Days 38 34  
Month to date heating degree days 551 641  
Since 1 July heating degree days 4230 4637  
Cooling Degree Days 0 0  
Month to date cooling degree days 0 0  
Year to date cooling degree days 0 0  
Moisture  
Dew Point 19 °F    
Average Humidity 74    
Maximum Humidity 92    
Minimum Humidity 56    
Precipitation  
Precipitation 0.02 in 0.02 in 0.28 in (2004)
Month to date precipitation 0.22 0.29  
Year to date precipitation 0.81 0.77  
Snow  
Snow 0.30 in 0.20 in 3.40 in (1952)
Month to date snowfall 3.3 3.7  
Since 1 July snowfall 31.0 32.0  
Snow Depth T in    
Sea Level Pressure  
Sea Level Pressure 30.10 in    
Wind  
Wind Speed 6 mph (West)    
Max Wind Speed 14 mph    
Max Gust Speed 16 mph    
Visibility 9 miles    
Events Snow    
T = Trace of Precipitation, MM = Missing Value Source: NWS Daily Summary

Daily Weather History Graph

Daily Weather History Graph

Search for Another Location

Airport:

Trip Planner

Search our weather history database for the weather conditions in past years. The results will help you decide how hot, cold, wet, or windy it might be!

Date:

Astronomy

Feb. 18, 2013 Rise Set
Actual Time 7:11 AM MST 5:45 PM MST
Civil Twilight 6:40 AM MST 6:16 PM MST
Nautical Twilight 6:06 AM MST 6:50 PM MST
Astronomical Twilight 5:31 AM MST 7:25 PM MST
Moon 11:24 AM MST 2:02 AM MST
Length of Visible Light 11h 35m
Length of Day
10h 34m
First Quarter, 59% of the Moon is Illuminated
Feb 18
First Quarter
Feb 25
Full
Mar 4
Last Quarter
Mar 11
New
Mar 19
First Quarter

Hourly Weather History & Observations

Time (MST) Temp. Windchill Dew Point Humidity Pressure Visibility Wind Dir Wind Speed Gust Speed Precip Events Conditions
12:53 AM 30.0 °F 21.7 °F 23.0 °F 75% 30.02 in 10.0 mi WNW 9.2 mph - N/A   Overcast
1:53 AM 30.0 °F 22.4 °F 21.9 °F 72% 30.05 in 10.0 mi NW 8.1 mph - N/A   Overcast
2:41 AM 28.9 °F 19.2 °F 23.0 °F 78% 29.98 in 1.5 mi NNW 11.5 mph - 0.00 in Snow Light Snow
2:53 AM 28.0 °F 18.6 °F 25.0 °F 88% 30.07 in 1.2 mi NW 10.4 mph - 0.00 in Snow Light Snow
3:12 AM 28.0 °F 20.0 °F 25.0 °F 88% 29.98 in 2.0 mi NW 8.1 mph - 0.01 in Snow Light Snow
3:23 AM 28.0 °F 20.0 °F 25.0 °F 88% 29.98 in 3.0 mi WNW 8.1 mph - 0.01 in Snow Light Snow
3:53 AM 27.0 °F 19.5 °F 25.0 °F 92% 30.07 in 9.0 mi West 6.9 mph - 0.01 in Snow Light Snow
4:53 AM 27.0 °F 20.5 °F 24.1 °F 89% 30.09 in 10.0 mi West 5.8 mph - 0.00 in   Overcast
5:53 AM 26.1 °F 16.8 °F 21.0 °F 81% 30.11 in 10.0 mi WNW 9.2 mph - N/A   Overcast
6:29 AM 26.1 °F 16.2 °F 19.0 °F 75% 30.02 in 5.0 mi NW 10.4 mph - 0.00 in Snow Light Snow
6:47 AM 26.6 °F 18.2 °F 19.4 °F 74% 30.03 in 9.0 mi NW 8.1 mph - 0.01 in Snow Light Snow
6:53 AM 26.6 °F 18.2 °F 19.4 °F 74% 30.03 in 10.0 mi NW 8.1 mph - N/A Snow Light Snow
7:53 AM 26.1 °F 20.5 °F 19.0 °F 75% 30.16 in 10.0 mi North 4.6 mph - 0.00 in Snow Light Snow
8:40 AM 26.1 °F 20.5 °F 19.9 °F 78% 30.07 in 10.0 mi SSW 4.6 mph - 0.00 in   Mostly Cloudy
8:53 AM 26.1 °F 20.5 °F 19.0 °F 75% 30.18 in 10.0 mi SW 4.6 mph - 0.00 in   Mostly Cloudy
9:53 AM 28.0 °F - 19.0 °F 69% 30.18 in 10.0 mi Calm Calm - N/A   Scattered Clouds
10:53 AM 28.9 °F - 17.1 °F 61% 30.18 in 10.0 mi Calm Calm - N/A   Scattered Clouds
11:53 AM 30.0 °F 24.1 °F 19.9 °F 66% 30.17 in 10.0 mi Variable 5.8 mph - N/A   Mostly Cloudy
12:53 PM 33.1 °F 30.0 °F 19.0 °F 56% 30.14 in 10.0 mi WSW 3.5 mph - N/A   Scattered Clouds
1:53 PM 33.1 °F 26.1 °F 19.0 °F 56% 30.13 in 10.0 mi South 8.1 mph - N/A   Scattered Clouds
2:53 PM 33.1 °F 26.1 °F 19.0 °F 56% 30.13 in 10.0 mi South 8.1 mph - N/A   Mostly Cloudy
3:53 PM 32.0 °F 26.4 °F 19.0 °F 59% 30.13 in 10.0 mi SSE 5.8 mph - N/A   Scattered Clouds
4:53 PM 30.9 °F 22.8 °F 19.0 °F 61% 30.12 in 10.0 mi South 9.2 mph - N/A   Partly Cloudy
5:53 PM 28.0 °F 20.0 °F 16.0 °F 61% 30.12 in 10.0 mi South 8.1 mph - N/A   Partly Cloudy
6:53 PM 26.1 °F 19.4 °F 16.0 °F 66% 30.11 in 10.0 mi SSE 5.8 mph - N/A   Clear
7:53 PM 25.0 °F 18.1 °F 15.1 °F 66% 30.11 in 10.0 mi SE 5.8 mph - N/A   Clear
8:53 PM 23.0 °F 17.0 °F 15.1 °F 72% 30.11 in 10.0 mi East 4.6 mph - N/A   Clear
9:53 PM 24.1 °F 15.2 °F 15.1 °F 69% 30.10 in 10.0 mi East 8.1 mph - N/A   Clear
10:53 PM 19.9 °F 12.1 °F 15.1 °F 81% 30.10 in 10.0 mi North 5.8 mph - N/A   Clear
11:53 PM 19.0 °F 10.0 °F 15.1 °F 85% 30.10 in 10.0 mi North 6.9 mph - N/A   Clear